Location: Arbon
(43.0005°N, 0.7472°E)
Time: 02:30:49
(UTC+00:00)

CENTAUR R/B - Pass Details

Date: 07 August 2020
Orbit: 754 x 1434 km, 63.5° (Epoch: 17 September)

Event Time Altitude Azimuth Distance (km) Brightness Sun altitude
Exits shadow 00:27:28 11° 274° (W) 2,585 4.7 -30.4°
Maximum altitude 00:32:24 27° 329° (NNW) 1,898 4.4 -30.3°
Drops below altitude 10° 00:38:25 10° 25° (NNE) 3,082 6.0 -30.1°
Sets 00:41:55 0° 37° (NE) 4,167 6.7 -30.0°
